Location: Unspecified
(0.0000°N, 0.0000°E)
Time: 05:10:20
(UTC+00:00)

N. Korean satellite - Visible Passes

Search period start: 23 May 2019 00:00
Search period end: 02 June 2019 00:00
Orbit: 457 x 508 km, 97.2° (Epoch: 22 May)

Date Brightness Start Highest point End Pass type
(mag) Time Alt. Az. Time Alt. Az. Time Alt. Az.
24 May 9.0 05:11:48 10° NE 05:14:33 23° E 05:17:18 10° SSE visible
24 May 9.7 18:33:15 10° SW 18:35:15 14° W 18:37:14 10° WNW visible
27 May 7.5 05:29:35 10° NNE 05:32:53 48° E 05:36:12 10° S visible
28 May 9.4 05:05:33 10° ENE 05:07:57 18° ESE 05:10:20 10° SE visible
28 May 9.6 18:26:10 10° SW 18:28:41 17° WSW 18:31:13 10° WNW visible
31 May 8.1 05:23:04 10° NNE 05:26:15 36° E 05:29:27 10° S visible
01 Jun 9.5 04:59:25 10° ENE 05:01:19 14° ESE 05:03:12 10° SE visible
01 Jun 9.3 18:19:12 10° SSW 18:22:06 22° WSW 18:24:59 10° NW visible
